Location: Barcelona
(41.3830°N, 2.1830°E)
Time: 21:08:21
(UTC+01:00)

ISS - Pass Details

Date: 22 March 2017
Orbit: 399 x 409 km, 51.6° (Epoch: 24 March)

Event Time Altitude Azimuth Distance (km) Brightness Sun altitude
Exits shadow 05:19:40 40° 311° (NW) 612 -3.2 -17.7°
Maximum altitude 05:20:43 84° 33° (NNE) 415 -3.9 -17.6°
Drops below altitude 10° 05:24:01 10° 124° (SE) 1,467 -0.5 -17.0°
Sets 05:26:05 0° 125° (SE) 2,325 0.6 -16.6°
